Zurück zum Katalog

SRH2

AktivAmateurfunkPO
NORAD 58643·PAYLOAD·🇩🇪 Germany

Gestartet Dec 24, 2023 von Vandenberg Space Force Base

Loading…

Nächste Überflüge (nächste 24 Stunden)

TLE

AlterndSource: Mike McCants

Epoche: Sep 9, 2026, 19:47 UTC

1 58643U 23204A   26252.82485608 0.00000000  00000-0  00000-0 0    08
2 58643  88.2026 116.3900 0003000  93.6041 266.3957 15.20490520    06

Verfolge SRH2 in Echtzeit mit AllMySat

Download on the App Store